Regional Weather Roundup
Issued by NWS

Home | Current Version | Previous Version | Text Only | Print | Product List | Glossary On
Versions: 1 2 3 4 5 6 7 8 9 10 11 12 13 14 15 16 17 18 19 20 21 22 23 24 25 26 27 28 29 30 31 32 33 34 35 36 37 38 39 40 41 42 43 44 45 46 47 48 49 50
000
ASUS44 KOUN 290010
RWROK

WEATHER ROUNDUP FOR OKLAHOMA
NATIONAL WEATHER SERVICE NORMAN OK
700 PM CDT THU JUL 28 2016

NOTE: "FAIR" INDICATES FEW OR NO CLOUDS BELOW 12,000 FEET WITH NO
      SIGNIFICANT WEATHER AND/OR OBSTRUCTIONS TO VISIBILITY.

OKZ001>007-009>012-014-015-017-290100-
NORTHWEST OKLAHOMA AND THE PANHANDLE

CITY           SKY/WX    TMP DP  RH WIND       PRES   REMARKS
GAGE           SUNNY     96  59  29 E6        29.93S HX  95
6HR MIN TEMP:  92; 6HR MAX TEMP:  98;

GUYMON         CLOUDY    90  56  31 S9        29.98S
ENID/WOODRING  PTSUNNY   82  68  61 E14       29.90F
$$

OKZ016-021>023-033>039-044-045-290100-
SOUTHWEST OKLAHOMA

CITY           SKY/WX    TMP DP  RH WIND       PRES   REMARKS
LAWTON/REGL    SUNNY     96  66  37 SE9       29.88R HX  99
6HR MIN TEMP:  94; 6HR MAX TEMP: 101;

LAWTON/FT SILL SUNNY     96  70  42 E7        29.88  HX 103
FREDERICK      MOSUNNY   97  67  37 S9        29.86S HX 101
CLINTON        SUNNY     98  62  30 SE8       29.95R HX  99
HOBART         SUNNY     96  65  35 S6        29.91R HX  98
ALTUS AFB      SUNNY     96  64  35 S7        29.89  HX  98
$$

OKZ018>020-024>031-290100-
CENTRAL OKLAHOMA

CITY           SKY/WX    TMP DP  RH WIND       PRES   REMARKS
OKLAHOMA CITY  PTSUNNY   89  71  55 E7        29.94R HX  95
6HR MIN TEMP:  89; 6HR MAX TEMP:  94;

OKC/WILEY POST MOSUNNY   90  70  51 NE7       29.94R HX  95
OKC/TINKER AFB MOSUNNY   89  74  61 E6        29.94  HX  97
STILLWATER     LGT RAIN  72  68  87 S12       29.90F
GUTHRIE        PTSUNNY   79  67  66 E15G26    29.94S
$$

OKZ008-013-054>072-290100-
NORTHEAST OKLAHOMA

CITY           SKY/WX    TMP DP  RH WIND       PRES   REMARKS
TULSA          CLOUDY    78  70  76 SW6       29.89F THUNDER
6HR MIN TEMP:  76; 6HR MAX TEMP:  96; 6HR PCP: TRACE;

TULSA/JONES    CLOUDY    73  69  87 CALM      29.90F
PONCA CITY     CLOUDY    75  69  81 E6        29.90F
BARTLESVILLE   CLOUDY    79  71  76 CALM      29.92S
MUSKOGEE       TSTM      75  69  81 N23G43    29.97R VSB 3/4
$$

OKZ032-040>043-046>053-073>077-290100-
SOUTH CENTRAL/SOUTHEAST OKLAHOMA

CITY           SKY/WX    TMP DP  RH WIND       PRES   REMARKS
ARDMORE/DWNTWN SUNNY     91  66  43 S6        29.89S HX  94
MCALESTER      SUNNY     91  75  59 S3        29.90F HX 101
$$





USA.gov is the U.S. government's official web portal to all federal, state and local government web resources and services.